Theta_e
356 356 356 356 355 354 353 354 354 354 353 353 352 352 351 351 359 372 378 370 356 352 353 352 351 351 350 351 352 351 350 350 353 356 356 357 358 356 355 353 353 354 355 356 356 356 357 355 352 350 350 350 348 348 347 346 345 340 332 327 325 322 320 320 317 315 315 315 317 318 318 319 318 321
356 356 355 355 355 354 353 354 354 354 354 353 352 352 352 351 355 360 367 368 360 353 354 354 352 353 352 353 354 353 352 351 353 355 356 357 357 357 355 353 353 355 356 356 356 357 357 356 354 351 351 352 350 348 348 347 346 345 339 331 326 323 320 320 318 315 315 315 316 318 318 319 319 319
356 356 355 354 354 354 354 354 355 354 355 354 353 353 353 353 353 350 355 363 360 354 355 354 351 353 353 354 353 352 353 352 353 354 354 356 357 356 355 354 355 356 356 356 356 357 358 357 356 353 352 353 352 349 348 347 346 346 345 338 330 324 321 320 319 316 315 315 315 316 317 318 320 318
356 355 355 355 353 353 354 356 357 355 355 355 354 353 354 354 354 351 353 357 355 353 354 353 351 352 352 352 353 353 353 353 354 354 354 356 356 355 355 355 356 357 356 357 356 357 358 358 357 355 353 353 353 352 349 348 347 346 347 345 337 329 323 320 320 318 315 315 314 315 316 317 320 319
354 354 355 355 354 354 354 355 357 357 355 356 356 355 355 355 354 354 354 354 353 352 350 350 351 353 352 351 353 356 357 355 355 356 355 356 356 356 356 356 356 356 356 356 356 356 358 357 358 357 354 353 353 353 352 350 349 347 347 348 344 337 328 322 320 319 316 315 314 314 315 316 318 320
351 352 354 356 355 355 355 355 357 358 356 357 357 357 357 357 355 354 354 354 354 353 351 350 352 354 353 352 352 354 356 356 355 355 354 354 354 354 356 357 357 358 357 357 356 356 357 357 357 357 355 354 354 354 354 352 350 349 347 347 347 344 338 328 321 319 317 315 314 314 315 315 316 319
351 350 352 355 355 355 355 356 358 358 358 357 358 358 357 357 357 356 355 354 355 355 354 353 353 354 354 353 351 351 351 352 351 350 350 351 352 353 355 357 358 358 358 357 355 356 357 357 357 357 355 355 355 354 354 353 352 351 348 346 346 346 345 338 327 321 318 316 314 313 314 315 316 317
354 351 351 353 354 353 354 356 358 359 357 356 357 356 355 355 355 356 356 355 355 355 355 355 354 354 354 352 351 350 351 351 351 352 353 354 355 355 357 358 358 357 356 354 352 353 357 357 355 355 356 355 356 355 355 354 353 352 350 348 346 346 347 345 336 325 319 317 315 313 314 315 316 316
355 354 353 353 354 354 354 356 357 358 357 356 355 354 354 353 353 354 355 356 356 355 356 355 353 352 352 352 352 351 352 354 354 354 354 354 354 354 355 357 358 356 354 353 353 354 357 356 354 354 355 355 356 355 355 354 353 353 351 349 347 346 346 348 344 332 322 317 315 313 313 315 315 316
355 355 354 354 354 355 354 355 355 356 356 356 355 354 353 353 352 351 353 354 355 355 355 355 353 352 352 352 352 352 353 354 354 354 352 350 350 351 350 352 353 353 352 353 356 357 357 355 354 354 354 355 356 355 355 354 354 353 352 351 349 347 345 347 347 340 327 319 316 314 313 314 315 316
355 355 355 354 354 354 354 354 354 354 354 354 354 353 352 352 352 352 351 351 352 353 352 352 352 352 352 353 353 352 353 354 354 354 352 350 348 348 348 348 349 349 350 352 355 357 356 355 354 353 352 353 354 354 355 354 354 353 352 351 350 348 346 346 348 345 333 321 317 315 313 314 315 316
353 354 355 355 355 355 355 355 354 354 354 353 353 353 352 351 351 352 351 350 351 351 350 350 351 352 354 354 353 353 354 355 353 350 351 352 350 348 348 348 348 348 350 352 354 355 354 354 354 353 350 350 351 353 354 354 353 354 353 352 351 349 348 346 347 347 337 324 318 317 314 313 315 315
353 352 353 354 355 356 355 355 355 354 353 353 353 353 352 352 351 351 351 349 350 351 351 351 351 352 353 353 352 353 352 352 351 348 350 352 350 349 350 349 348 348 348 351 354 355 354 354 355 354 350 348 349 351 352 352 352 353 353 352 351 350 349 347 347 346 339 327 319 317 315 313 314 316
353 352 352 352 353 353 354 354 353 353 353 352 352 352 351 351 351 351 351 350 350 351 351 351 351 352 353 352 352 352 349 347 348 350 351 351 350 351 352 350 349 348 347 349 351 352 353 353 354 352 349 348 348 349 350 350 351 352 353 353 352 351 350 348 348 346 339 329 321 318 316 314 314 315
354 352 352 352 352 352 352 352 352 352 353 352 352 351 351 351 350 350 351 351 351 351 351 351 351 352 353 351 349 350 347 344 345 347 349 351 353 353 352 352 350 346 345 349 350 349 351 352 351 351 349 349 349 349 348 347 349 350 351 353 353 352 351 349 348 346 340 330 323 319 317 315 314 314
354 354 353 352 353 353 352 352 352 351 352 352 351 351 350 350 350 350 349 349 351 351 351 352 352 352 352 350 346 345 343 341 341 343 346 349 351 352 352 352 349 344 347 352 352 351 351 352 351 351 350 351 351 350 347 346 347 348 349 351 352 352 352 351 349 347 342 334 327 322 318 316 315 314
353 354 354 354 353 353 352 352 352 351 351 351 350 350 349 348 349 350 350 349 349 350 351 352 351 350 349 347 345 341 341 341 342 344 345 345 347 350 350 350 348 347 350 352 353 352 351 350 352 353 351 351 352 351 348 346 346 347 348 350 351 352 352 351 350 348 343 338 332 326 321 317 316 315
351 351 351 352 353 353 352 352 351 351 351 350 349 348 347 347 346 347 349 350 350 350 352 352 351 349 347 345 343 341 341 343 343 345 345 345 347 348 348 349 349 348 347 349 353 354 347 346 353 354 351 353 353 350 348 346 346 347 348 350 351 351 351 351 350 349 346 341 335 330 325 319 317 315
352 351 349 349 348 349 350 350 350 350 350 350 349 348 347 346 346 345 345 346 347 348 350 351 350 348 346 345 343 342 344 345 345 346 346 345 345 345 345 346 345 342 340 343 351 353 346 344 353 354 351 353 354 351 349 347 347 346 346 349 351 350 350 351 350 349 347 343 338 333 328 322 318 316
353 353 351 350 348 346 345 345 346 347 348 349 349 349 348 346 345 344 342 342 344 345 345 347 347 347 346 346 344 344 346 347 347 348 348 346 345 344 344 345 343 341 341 341 347 354 351 347 353 354 349 352 353 350 349 348 347 345 345 348 351 350 350 350 350 349 348 346 341 336 331 325 320 317
353 353 353 352 351 348 346 344 342 343 345 348 348 348 348 348 347 345 344 343 344 344 343 344 344 345 345 346 346 346 347 347 348 351 350 349 349 345 343 344 344 343 344 341 345 353 352 348 352 353 350 351 352 349 347 346 345 345 345 347 350 351 350 350 349 348 348 347 344 340 335 328 322 318
349 351 352 352 352 351 349 347 344 343 345 347 349 349 349 349 349 348 347 347 347 346 346 346 346 346 346 347 347 347 347 347 348 351 352 351 350 345 342 344 344 344 345 344 345 350 351 347 350 352 352 352 352 349 348 346 344 345 346 347 349 351 351 350 349 348 348 347 346 343 339 332 325 321
349 349 349 350 351 351 351 350 348 347 347 348 348 349 350 350 350 348 348 348 349 349 349 348 348 348 348 348 349 348 348 347 346 349 351 350 350 347 345 344 344 343 346 347 347 348 348 347 348 351 352 354 353 349 348 347 346 347 347 347 348 350 351 350 349 347 346 346 346 345 341 336 330 325
353 352 351 350 349 349 349 349 349 348 347 347 346 346 348 349 347 345 345 347 348 348 349 349 349 349 349 349 349 348 348 348 347 347 348 349 350 349 347 345 344 343 346 347 347 348 348 349 349 350 352 353 353 350 349 349 348 347 347 346 346 348 349 349 349 347 346 346 346 345 343 339 334 330
353 353 353 353 351 349 347 347 348 348 347 346 345 345 346 346 345 345 348 349 349 349 349 349 349 349 349 349 349 349 348 349 349 349 350 351 352 351 349 348 345 344 347 347 348 347 348 349 349 350 351 352 352 351 350 350 350 349 348 347 346 347 348 348 348 347 346 346 345 345 345 341 337 334
355 355 355 355 353 351 348 347 348 348 348 348 347 347 347 347 348 350 352 352 352 351 350 350 350 350 350 350 350 350 350 351 351 352 352 353 354 353 352 351 349 348 350 351 349 347 347 348 349 350 351 351 351 351 350 350 350 351 349 349 348 347 348 348 347 347 346 346 345 345 345 343 339 335
355 355 355 355 354 351 349 349 349 350 351 351 350 350 350 350 352 353 354 355 354 352 351 350 350 350 351 351 351 351 352 352 352 353 353 353 353 353 352 353 352 351 352 353 352 350 348 348 349 350 350 351 350 350 350 350 351 351 350 350 349 349 348 348 348 348 347 346 345 345 344 342 339 334
354 353 352 352 352 351 350 350 352 353 354 354 353 353 353 354 355 355 356 357 356 353 351 350 351 352 353 352 352 352 352 353 352 353 353 353 353 353 353 353 353 352 352 352 353 353 352 350 350 350 351 351 351 350 350 351 352 352 351 351 350 350 350 349 349 349 348 347 346 344 343 343 341 337
353 352 352 351 350 350 349 350 352 353 355 355 355 355 355 355 356 356 356 356 354 352 351 351 352 353 354 354 354 353 353 353 353 353 354 354 354 353 353 353 353 353 353 352 352 353 353 353 353 352 351 352 352 351 351 352 352 352 352 351 351 351 351 350 350 350 349 348 347 346 346 345 344 341
353 352 352 351 351 350 350 350 350 351 353 354 354 354 353 353 354 354 353 352 350 350 351 352 352 353 354 354 354 354 353 353 353 353 353 353 354 353 353 353 353 353 354 353 353 352 352 353 355 355 353 352 353 353 353 353 353 353 353 352 352 351 351 351 352 351 351 351 350 350 349 348 345 343
351 351 351 351 351 350 350 351 351 351 352 353 353 352 352 352 352 353 352 350 350 350 351 350 351 352 352 352 352 353 353 352 353 353 353 353 353 353 352 352 352 353 353 352 352 352 352 352 354 355 356 355 354 354 354 354 354 354 354 353 353 352 352 352 352 352 352 352 351 350 350 348 347 344
347 346 347 348 350 350 351 351 352 352 352 353 353 352 352 352 353 353 353 351 352 352 352 352 351 352 351 351 351 352 352 352 353 353 352 352 352 352 352 351 351 352 352 352 351 351 351 350 351 352 354 355 355 356 356 355 354 354 354 354 354 354 354 354 353 354 353 351 349 350 350 350 349 348
342 341 342 343 345 347 349 349 350 352 352 352 353 353 353 353 353 353 353 353 353 354 354 353 352 351 351 351 351 351 351 351 352 352 352 352 352 351 351 351 351 351 351 351 351 351 351 351 351 350 351 352 354 356 356 355 354 354 354 354 354 354 354 354 354 354 353 351 349 349 349 350 351 351
339 341 342 342 343 344 345 345 346 348 350 351 353 353 353 353 353 353 353 353 354 354 354 353 352 351 350 349 349 350 350 350 351 352 352 352 352 351 351 351 351 351 351 351 351 351 352 351 351 351 352 353 354 356 356 356 355 355 355 354 354 354 354 354 354 354 354 353 351 348 347 348 350 351
339 339 340 341 342 343 343 343 344 346 347 350 351 352 353 353 353 354 353 354 354 354 354 353 352 351 349 349 349 349 349 350 350 351 351 351 351 352 351 351 351 351 351 352 352 352 353 353 353 353 353 354 355 356 356 356 355 355 355 354 354 354 354 354 355 355 354 354 352 348 345 345 348 350
339 339 338 339 340 341 343 344 344 345 346 347 348 349 350 351 351 352 352 353 354 354 354 353 351 350 349 349 349 349 349 349 349 350 350 351 351 351 351 351 351 351 352 352 352 353 353 353 354 353 353 353 355 356 355 355 356 356 355 355 355 355 355 355 355 355 355 355 353 349 346 346 350 352
338 338 338 338 339 340 341 343 344 345 346 346 347 348 349 350 350 351 351 352 353 354 354 352 351 350 349 349 350 350 350 349 349 349 349 350 350 351 351 351 351 351 352 352 352 353 353 353 354 354 353 354 357 358 356 355 356 356 356 356 356 356 356 356 356 356 356 355 354 353 350 350 352 355
337 338 339 339 340 341 342 342 343 344 345 346 347 347 348 349 350 350 351 352 353 353 353 352 352 351 351 351 351 350 350 350 350 349 349 350 350 350 351 351 352 352 352 352 353 353 353 354 354 355 354 356 358 358 356 356 356 356 357 357 357 357 357 357 357 356 356 356 355 355 354 353 354 355
337 338 338 338 339 340 341 342 344 345 346 347 348 348 349 349 350 351 351 352 352 353 353 352 352 352 352 351 351 350 350 349 350 350 350 350 350 351 351 351 351 352 352 352 353 353 353 353 354 355 355 355 357 357 356 356 356 356 357 356 356 357 357 357 357 357 356 356 355 355 354 353 353 354
333 333 333 333 333 334 335 337 340 342 343 344 344 346 346 347 348 349 350 351 352 353 353 353 352 352 351 351 350 349 349 348 349 349 350 350 350 351 351 351 351 352 352 352 353 353 353 353 354 355 355 356 356 357 357 356 355 356 356 356 356 356 356 356 357 357 356 356 355 354 352 349 348 349
327 327 327 326 326 327 328 330 332 334 335 337 338 339 340 340 341 343 345 347 349 350 350 350 351 350 350 350 349 348 348 349 349 349 349 349 350 350 350 351 351 351 351 351 352 352 353 353 353 354 354 355 355 356 356 355 354 354 355 354 354 354 353 354 355 355 356 357 356 354 352 349 347 346
322 322 322 322 322 322 322 324 326 328 329 331 332 333 334 335 336 337 339 340 342 345 346 346 347 348 348 349 350 350 350 350 350 350 350 350 350 350 350 350 350 349 350 350 351 351 352 352 352 352 352 353 354 353 352 352 352 352 352 352 351 352 351 352 353 353 354 355 356 355 353 349 346 344
319 318 317 318 317 317 318 319 321 324 325 326 327 328 329 330 332 333 334 335 336 338 340 342 343 344 345 346 347 348 349 350 350 351 351 351 350 350 350 350 350 350 350 350 350 351 351 351 350 350 350 351 352 351 350 350 350 350 350 350 351 351 351 351 351 351 352 353 353 354 354 352 348 346
316 314 313 313 313 313 314 315 318 319 321 322 323 324 325 326 327 328 329 330 332 333 335 337 338 340 341 342 342 343 345 347 348 350 350 351 351 351 350 351 350 350 350 350 350 350 351 350 350 349 349 349 350 349 349 349 349 349 349 350 350 350 350 350 350 350 351 352 352 353 354 354 352 350
313 312 312 311 311 311 311 312 314 315 316 317 319 320 322 323 324 325 327 328 329 331 332 333 334 335 337 338 339 341 341 342 344 345 346 348 348 349 349 350 350 349 350 350 349 349 350 350 350 349 348 348 348 348 348 349 349 349 349 349 349 350 350 350 350 350 350 351 352 351 351 352 352 352
Wind_Speed
10 9 9 8 8 9 7 5 4 3 3 3 3 4 3 0 1 0 2 3 2 4 5 2 6 8 7 7 9 9 10 9 9 10 11 11 12 11 12 14 14 13 14 15 15 13 12 11 11 11 11 12 12 12 12 12 14 16 17 17 17 18 19 20 20 18 17 16 14 14 12 10 7 4
10 10 10 9 10 10 8 7 7 6 4 4 4 4 4 3 2 2 2 3 3 2 3 5 3 3 5 6 9 10 10 10 9 10 11 12 12 11 13 15 15 15 15 16 16 15 13 11 11 11 10 11 12 11 11 11 12 14 17 17 17 18 19 19 19 19 17 16 14 13 12 11 8 5
10 11 11 11 11 10 9 7 8 7 5 5 5 5 5 6 5 5 3 2 3 3 3 6 8 7 6 7 8 10 10 9 9 9 10 11 11 11 14 15 15 15 15 16 16 16 14 12 11 11 10 10 11 11 10 10 11 13 16 17 17 17 18 19 19 19 17 16 14 13 12 11 10 6
11 11 11 11 11 11 10 8 8 8 6 6 6 6 7 6 6 6 4 4 8 10 10 11 11 10 9 9 9 9 9 9 10 11 10 10 11 13 14 14 14 15 15 15 15 15 15 13 12 12 11 10 10 10 10 10 10 12 14 16 17 17 17 18 18 18 18 16 14 13 12 11 10 8
12 12 12 12 11 11 12 10 8 8 8 7 7 7 8 9 8 9 8 7 11 17 16 14 12 11 11 11 10 9 9 8 9 10 11 11 12 14 15 14 15 15 15 14 14 14 14 14 13 13 13 12 11 10 10 10 10 11 12 14 17 17 17 17 17 17 17 17 15 13 12 11 10 9
12 13 13 13 12 12 12 12 10 10 10 9 9 10 11 13 12 12 12 11 11 15 17 15 13 13 13 13 12 11 12 12 12 12 12 12 14 15 15 15 15 16 15 14 14 14 14 13 14 13 13 13 12 12 11 10 10 10 10 12 15 17 17 17 16 16 16 17 16 14 12 10 9 9
13 13 14 14 13 12 13 13 12 12 13 12 12 13 13 15 16 14 14 14 13 15 16 15 15 15 15 16 15 14 14 15 16 15 14 13 14 14 14 14 14 15 15 15 15 14 14 13 13 13 14 14 14 14 12 11 10 10 10 10 13 15 17 17 17 16 16 16 16 14 12 10 9 8
14 14 16 16 13 12 13 14 14 14 14 14 14 15 14 15 17 17 16 16 15 16 17 17 17 16 17 17 16 15 15 14 14 14 14 14 14 14 15 15 16 16 16 16 15 14 14 14 14 14 14 15 15 15 14 13 12 11 10 10 11 13 16 18 17 16 15 15 15 14 13 11 9 8
17 16 17 16 14 13 14 15 15 15 15 15 15 17 17 15 15 16 17 18 18 19 19 19 18 18 17 18 17 16 15 15 15 15 15 15 16 17 17 17 18 17 16 15 14 14 14 14 14 15 15 16 16 16 16 15 14 13 12 11 11 11 14 17 18 16 16 15 14 14 13 12 10 8
19 18 18 17 15 15 15 16 16 16 16 17 18 18 18 17 17 16 15 16 18 19 20 19 20 20 19 19 19 17 16 16 17 18 19 18 18 18 19 18 18 18 17 16 15 15 14 15 15 16 17 17 17 17 17 16 16 15 14 13 12 11 12 15 18 17 15 15 14 13 13 12 10 9
19 19 19 19 17 16 16 17 17 17 17 18 19 18 17 17 18 18 16 15 16 17 18 18 19 20 20 19 20 19 17 17 18 19 20 20 19 18 19 20 19 18 19 19 18 17 16 16 16 16 18 19 19 19 19 18 18 17 17 15 14 13 12 14 17 17 15 15 14 13 12 12 11 9
21 21 20 20 20 19 19 19 19 19 19 19 19 19 18 18 19 19 19 18 18 18 18 18 19 19 19 19 20 21 20 19 20 20 19 20 21 21 21 21 20 19 20 20 20 18 17 16 17 17 18 19 19 20 20 20 19 19 19 18 16 14 12 12 15 16 15 14 14 13 12 11 10 9
23 23 23 22 22 22 21 21 21 21 21 21 21 22 21 21 21 21 21 20 20 19 18 19 20 18 19 22 22 23 23 23 23 23 21 22 24 24 23 22 19 17 17 19 20 20 19 18 19 19 19 19 19 20 21 21 20 19 19 19 18 16 14 12 13 14 14 13 13 13 12 11 10 8
26 26 25 25 25 25 24 24 24 24 23 23 24 24 23 23 23 23 23 23 22 21 20 22 22 19 21 25 25 25 26 26 25 25 24 24 24 24 23 22 21 19 17 17 19 20 19 19 20 20 20 20 19 20 21 21 21 20 20 20 19 17 16 14 12 12 12 12 13 12 11 11 10 8
28 28 27 26 26 26 26 25 25 25 24 24 24 25 25 25 25 26 26 26 25 24 23 23 22 21 22 26 27 27 28 28 27 27 25 25 25 24 19 17 21 24 19 15 18 20 19 18 20 21 21 20 19 20 21 21 21 21 20 20 20 18 17 16 12 10 11 11 12 12 11 10 9 8
29 28 28 28 28 27 27 26 25 25 25 26 26 26 27 27 28 29 29 28 27 26 25 25 24 24 25 27 28 29 29 29 28 28 27 26 25 24 21 19 24 27 22 16 18 23 23 20 20 23 23 21 20 20 21 22 22 21 21 20 20 18 17 17 14 11 10 10 11 12 11 10 9 8
31 30 29 29 29 29 29 28 27 27 27 27 27 28 27 27 29 30 32 32 31 30 28 27 28 28 27 28 29 30 30 29 28 28 29 29 27 25 24 26 29 28 25 20 20 24 28 24 21 24 25 23 21 21 21 21 21 21 21 20 19 18 16 17 16 13 10 9 10 11 11 11 9 8
32 32 32 32 32 31 30 30 29 29 28 28 28 28 27 27 27 27 29 31 33 33 32 30 31 32 31 31 32 32 31 30 30 31 32 31 29 28 28 29 30 31 30 27 21 22 30 29 23 25 28 25 23 22 20 19 19 20 20 20 18 17 16 16 17 15 12 10 10 10 11 11 10 9
33 33 33 34 34 34 33 32 31 31 30 30 30 30 31 31 30 29 29 29 30 32 34 35 36 37 36 36 35 33 31 31 31 33 33 30 29 30 31 32 33 34 35 30 20 19 29 30 25 27 30 26 24 24 20 19 20 19 19 19 18 17 17 16 17 17 15 12 11 11 11 12 11 10
33 34 35 35 35 35 35 34 33 32 31 32 32 33 34 34 34 34 32 30 29 29 31 34 35 36 36 36 35 34 32 30 30 31 33 32 30 29 27 28 31 34 33 30 22 20 27 30 26 28 31 27 25 25 22 20 20 19 18 18 18 18 18 17 17 18 17 14 13 12 12 12 13 12
31 32 34 35 36 37 37 35 34 32 31 32 34 35 35 35 35 35 34 33 32 32 32 33 34 34 34 34 33 33 32 30 30 31 33 33 31 26 20 20 27 31 33 32 24 19 25 30 26 26 28 27 25 24 21 19 18 17 17 17 18 19 19 18 18 19 18 16 15 14 14 14 14 14
32 33 33 33 34 37 38 38 36 34 33 34 35 35 35 35 35 36 36 35 35 35 35 35 35 35 35 35 34 34 33 31 30 32 34 34 30 24 20 21 25 28 35 38 27 18 25 31 26 23 23 23 23 23 19 16 16 15 15 16 18 20 20 20 20 20 20 19 17 16 15 15 16 16
29 32 34 35 35 37 38 39 38 37 36 36 35 34 34 33 34 36 35 33 33 34 34 35 36 36 36 35 35 35 34 33 32 32 34 34 31 27 26 26 20 16 26 36 26 17 23 28 24 20 16 12 15 19 16 14 15 14 14 16 17 20 21 21 21 22 22 21 20 19 18 18 19 18
29 30 32 35 37 39 40 39 38 37 36 36 35 33 32 32 34 35 32 31 31 31 32 33 34 35 35 35 35 35 35 35 34 34 34 34 34 32 30 29 22 16 25 36 27 17 21 24 23 22 17 10 11 15 15 16 16 16 16 17 17 18 21 22 23 24 24 24 23 22 21 21 21 21
29 30 32 32 34 37 39 40 38 37 36 35 34 33 33 33 34 33 32 32 31 30 31 32 32 33 34 34 35 35 36 36 35 34 33 32 32 31 29 30 27 26 33 40 33 24 24 24 24 24 20 17 18 20 21 22 22 22 22 21 20 19 20 22 24 25 26 26 26 25 24 24 24 23
27 29 31 31 31 32 35 37 36 36 36 35 35 35 35 34 34 34 34 35 33 31 31 31 31 31 32 33 34 34 35 36 36 35 33 32 32 32 33 32 30 31 35 39 35 29 27 27 28 26 22 20 22 23 23 23 25 25 24 23 23 22 21 22 24 26 27 28 28 27 27 26 25 24
28 29 30 30 30 30 31 32 32 31 31 32 33 34 33 33 33 33 34 35 34 32 31 29 29 31 32 32 32 33 34 36 36 35 35 36 36 36 37 37 35 36 39 39 36 32 29 29 31 30 26 24 22 20 20 22 24 25 25 24 23 22 22 24 25 27 28 29 29 29 28 28 27 26
28 28 28 27 28 28 29 28 27 26 27 29 31 31 31 32 32 32 34 35 35 32 30 29 30 33 34 33 33 34 35 35 35 35 36 36 36 36 36 37 36 37 40 41 39 36 33 33 34 33 30 27 24 20 20 23 25 26 25 25 23 23 23 24 26 28 29 30 30 31 31 31 30 29
23 24 25 25 26 28 28 27 25 25 25 27 28 28 28 28 28 28 28 28 27 27 28 29 31 33 36 36 36 36 36 35 35 36 37 37 37 36 35 36 36 37 39 41 41 39 37 36 36 34 32 30 28 27 26 26 28 28 26 24 25 25 25 25 27 29 30 31 31 32 32 32 32 32
16 17 19 20 22 24 26 28 29 29 27 26 25 24 23 23 24 24 24 23 23 25 28 29 30 32 35 37 36 36 35 35 36 37 37 37 37 36 34 33 35 38 39 40 40 40 39 39 37 34 33 32 31 32 31 29 29 30 28 26 25 24 24 26 27 28 29 31 32 32 32 33 33 34
15 15 15 15 16 18 19 22 26 29 31 30 29 27 27 27 27 28 27 26 27 30 32 32 34 36 37 37 37 37 35 35 37 38 36 35 37 36 32 30 33 39 41 38 36 35 36 37 36 35 34 33 32 33 33 31 31 31 29 28 27 26 26 27 28 28 29 29 31 32 33 34 35 36
19 20 20 19 19 19 19 19 20 24 28 31 33 33 32 32 32 31 29 28 30 33 35 35 36 37 38 37 39 39 36 35 36 36 33 34 36 34 28 25 29 35 37 34 31 28 29 30 31 32 34 34 35 36 34 31 31 31 30 29 29 30 31 31 31 33 32 29 30 33 34 34 35 36
22 23 22 21 21 21 20 20 20 21 23 25 28 30 31 31 31 29 28 28 31 33 33 34 35 36 37 37 38 36 34 33 34 33 31 32 32 28 25 26 30 31 32 32 30 26 25 26 26 27 30 31 34 36 35 31 31 31 31 31 31 31 32 33 33 34 32 31 32 35 35 35 36 36
20 21 21 21 20 19 20 21 22 22 22 22 23 23 24 25 25 24 25 27 29 31 31 33 34 34 34 35 34 32 30 31 32 31 29 28 28 26 25 27 29 29 28 30 31 28 24 24 23 24 26 28 30 34 36 34 33 33 33 33 34 33 33 34 33 33 33 34 34 34 35 37 38 37
19 19 20 21 20 19 19 20 21 22 22 22 22 22 23 23 23 24 26 28 29 31 33 34 34 33 33 34 33 32 30 29 29 29 27 25 25 27 26 26 28 29 27 28 31 29 25 22 22 21 22 23 24 28 33 36 37 36 35 34 34 34 34 34 33 32 33 34 33 32 33 35 37 39
18 18 19 21 21 20 19 20 19 20 20 21 21 22 23 24 25 26 28 29 30 31 33 33 33 33 32 32 32 32 31 29 28 28 27 25 25 26 27 27 29 29 28 28 32 31 26 24 23 20 17 14 11 13 23 33 35 33 33 34 35 35 35 34 32 31 31 32 33 33 33 34 38 40
16 16 17 19 20 20 20 20 20 20 20 21 21 22 23 25 27 29 29 30 31 31 31 31 32 31 31 30 31 32 31 29 27 27 27 26 25 25 25 27 29 29 29 30 31 31 27 24 24 21 16 10 5 8 19 30 30 27 29 33 34 34 34 32 29 29 31 32 34 36 36 37 40 43
16 17 17 19 20 20 21 21 21 21 20 20 21 22 24 26 28 29 30 30 31 31 31 31 32 32 31 31 31 32 31 29 26 25 26 25 25 25 26 27 28 28 27 27 28 29 28 25 25 24 19 11 6 8 15 22 23 23 25 28 31 32 32 29 29 30 32 33 34 37 39 40 42 44
16 17 18 19 20 20 20 20 20 21 21 20 21 22 24 25 27 28 30 31 32 31 30 31 32 32 31 32 31 31 31 28 25 25 26 25 26 27 27 27 26 25 24 25 27 28 27 25 25 27 26 22 20 20 22 23 25 26 23 22 25 29 30 28 29 30 31 32 33 36 38 39 41 43
16 17 17 18 19 19 19 18 18 18 17 17 18 18 19 20 21 22 24 26 29 30 30 31 31 31 30 31 30 29 29 28 26 26 26 26 27 28 27 26 25 24 23 25 27 27 25 24 25 27 29 30 32 35 34 30 30 33 32 29 30 33 33 33 32 32 32 33 32 32 33 33 35 37
15 17 18 20 21 21 22 21 21 21 20 20 19 19 19 20 20 20 21 21 21 23 24 25 27 27 28 29 29 28 27 27 26 26 26 25 27 28 28 26 26 25 23 23 26 28 26 23 22 23 25 27 30 29 25 19 21 31 37 35 32 32 33 33 34 35 36 35 31 28 29 29 29 30
16 18 21 23 23 23 24 24 24 24 24 23 23 23 24 25 26 25 25 23 22 21 21 21 21 22 24 25 26 25 26 25 25 25 26 25 25 25 25 25 26 26 24 24 28 31 28 23 20 19 20 23 25 22 17 15 19 27 33 32 29 28 28 29 31 33 36 37 33 30 28 23 16 17
18 20 23 25 25 25 26 25 24 23 24 25 26 26 25 26 28 28 28 27 26 24 23 23 23 22 23 24 24 23 24 24 24 25 26 26 25 25 25 25 26 27 27 27 30 33 31 27 24 20 19 23 25 22 21 24 27 29 31 32 31 29 28 28 29 29 32 35 37 39 39 30 19 17
20 21 21 20 20 21 23 23 22 23 24 25 26 27 26 27 28 29 28 27 26 26 25 25 26 26 27 27 26 25 25 24 24 25 25 25 24 24 25 25 25 25 26 27 28 30 30 28 26 23 22 25 27 27 28 31 31 30 32 32 31 30 30 28 27 27 29 32 34 38 43 43 39 37
20 21 21 20 19 20 21 21 22 23 24 25 26 27 28 28 30 31 31 29 29 28 28 28 28 29 29 28 27 27 27 26 25 26 25 24 24 23 24 25 25 25 26 26 25 27 28 27 25 23 24 26 28 30 33 34 32 32 32 32 32 32 31 26 24 25 29 32 33 32 34 39 43 45
Wind_Direction
245 263 269 274 280 279 287 301 301 305 315 316 314 312 318 202 169 205 325 302 318 25 22 309 236 235 246 277 291 296 296 288 283 285 288 294 303 316 332 334 332 327 321 321 321 320 324 336 351 1 6 8 5 0 358 357 355 353 354 356 355 357 359 359 360 3 8 12 14 14 15 20 26 25
250 263 266 267 270 270 277 289 293 298 302 300 299 299 304 303 252 205 227 279 282 308 15 20 4 293 279 288 293 297 295 284 282 287 286 290 297 309 323 327 328 325 320 318 316 313 314 321 335 347 357 5 6 5 2 360 357 353 353 355 356 357 359 359 360 1 5 11 14 15 17 23 31 35
256 265 265 263 263 267 276 282 289 295 298 297 291 283 290 298 289 266 237 238 282 279 296 322 330 324 310 303 299 301 300 288 286 295 295 293 296 304 316 323 326 325 322 319 314 309 307 310 320 331 341 354 1 4 4 2 1 356 352 353 355 356 358 359 359 360 2 7 12 15 17 24 32 37
261 268 268 266 263 263 266 271 280 282 282 289 284 274 281 289 282 275 259 251 277 287 294 304 313 316 309 303 304 312 313 297 291 295 294 292 296 304 313 319 321 322 324 323 318 311 306 305 310 318 325 336 348 356 358 359 1 359 354 352 352 354 356 358 359 359 359 0 7 15 16 22 31 36
260 268 270 269 267 263 261 263 269 273 272 272 271 268 272 274 269 268 269 272 284 288 291 299 310 316 313 306 305 312 317 310 302 300 295 292 297 303 308 311 311 314 318 323 322 317 310 305 306 311 315 322 330 340 346 350 353 357 356 353 352 352 352 355 358 358 357 356 360 10 15 19 29 36
258 263 267 268 269 269 267 265 268 274 272 265 265 265 265 267 267 267 268 269 277 286 292 301 308 311 315 312 305 304 306 305 304 303 298 295 297 299 301 302 302 304 307 313 316 316 313 308 305 307 310 313 318 323 330 336 341 346 351 354 354 353 350 351 354 356 357 354 353 1 12 16 24 33
259 257 259 263 268 271 270 269 272 277 275 268 267 270 272 271 269 268 267 264 266 276 289 300 304 305 310 313 311 308 304 301 301 300 298 297 299 299 299 298 299 300 301 303 305 308 309 308 306 306 306 308 311 314 316 321 327 330 336 344 351 353 351 348 350 352 355 354 351 353 3 12 18 26
261 256 254 257 264 269 268 266 269 276 278 274 272 276 281 280 276 271 267 264 264 269 277 288 295 299 304 309 314 316 312 309 307 305 305 304 303 299 296 294 296 302 304 300 297 296 298 302 306 305 302 303 306 307 308 311 315 317 319 325 336 347 350 347 345 347 349 352 351 348 354 4 11 16
266 260 254 255 258 262 264 263 263 269 275 279 280 279 282 287 289 282 271 265 265 266 270 279 289 296 298 303 310 315 316 316 314 311 309 307 304 302 299 295 295 299 302 298 291 288 289 295 300 300 299 299 301 302 303 305 308 309 308 309 315 328 343 344 342 342 344 347 349 346 347 354 2 7
267 264 258 258 258 258 260 260 261 265 271 276 280 280 279 285 292 290 280 270 267 267 270 276 285 291 293 296 303 307 309 309 308 308 308 308 308 307 307 305 300 299 299 294 288 285 286 291 296 299 298 297 297 299 300 301 304 305 301 299 302 308 326 338 338 338 339 340 344 345 344 347 352 359
262 262 260 259 259 257 257 258 260 264 267 272 276 276 276 278 282 285 284 279 274 272 274 279 284 287 290 292 295 299 302 299 297 299 303 306 309 310 311 311 308 303 299 294 289 285 284 287 292 297 298 297 298 298 298 299 301 303 299 294 293 296 307 326 333 333 334 335 338 341 341 342 346 351
258 259 258 257 257 258 258 260 262 263 264 268 270 272 272 272 273 277 280 280 279 276 274 278 282 284 287 289 290 293 295 292 291 296 299 299 301 305 307 307 306 302 297 294 289 284 281 285 290 293 295 297 298 298 297 297 299 302 300 295 290 288 293 311 325 328 328 329 331 335 337 338 341 348
257 259 258 256 257 258 259 261 264 264 265 266 267 268 268 267 268 270 271 273 274 273 271 274 277 278 280 283 285 287 288 286 289 294 295 293 295 300 302 303 303 301 299 295 289 283 282 287 290 291 294 299 301 299 297 298 301 304 303 297 291 285 283 294 315 322 322 322 324 327 333 334 335 343
255 258 258 258 258 259 261 262 264 264 264 264 265 265 266 265 264 263 265 267 267 266 264 267 270 270 271 277 280 281 285 288 288 289 289 289 293 298 300 300 300 302 303 299 292 289 287 288 288 290 295 301 301 298 299 302 305 306 304 299 293 285 279 281 297 312 315 316 317 319 325 330 330 334
255 256 257 258 259 260 261 263 264 264 264 265 265 265 266 266 265 262 262 264 264 262 260 262 264 262 265 274 279 281 284 288 288 288 288 288 289 292 294 295 297 300 304 301 295 294 292 288 287 290 295 299 298 298 303 308 308 306 303 299 294 286 277 273 280 296 303 308 311 311 315 322 323 324
255 257 258 258 259 260 261 263 265 266 266 267 268 268 269 269 268 266 262 262 263 262 259 259 260 261 265 273 280 283 286 289 291 291 290 287 284 284 284 285 289 295 299 299 295 295 295 291 288 289 293 297 297 299 304 307 306 304 302 298 294 287 275 268 268 276 286 294 302 304 306 311 315 315
253 256 258 259 259 260 262 263 264 265 267 269 269 270 271 271 271 269 265 262 261 263 262 260 261 265 268 272 279 286 289 289 290 291 290 288 286 284 283 285 288 292 296 297 294 293 294 292 287 287 292 296 297 299 302 303 303 302 299 296 293 288 275 264 261 263 270 278 287 295 298 301 303 303
252 254 255 256 258 259 261 262 262 262 265 267 267 269 271 274 276 275 271 266 261 259 259 258 261 267 270 272 280 288 290 289 289 288 286 287 288 288 287 288 289 289 290 292 290 287 290 291 285 285 292 295 296 298 299 298 299 300 297 292 287 283 275 263 257 257 260 265 271 282 289 292 293 292
253 254 255 256 257 259 259 260 261 261 263 264 266 268 270 274 277 277 277 275 269 263 260 259 261 267 271 274 279 285 288 288 290 290 286 284 286 286 287 287 286 287 288 288 280 273 284 289 284 285 292 295 295 298 297 294 294 296 294 289 281 277 272 262 254 253 256 260 263 270 279 283 284 283
255 256 256 256 257 259 260 260 260 261 262 262 264 266 268 270 272 274 275 276 275 272 268 266 267 269 273 276 278 281 284 284 288 289 286 285 285 283 283 285 285 288 291 290 279 268 279 286 282 284 293 295 295 298 298 295 295 294 290 285 279 274 269 260 252 249 252 256 260 265 271 274 276 276
254 256 257 257 258 258 259 260 260 260 259 260 260 262 263 265 267 269 271 273 273 273 272 272 272 273 275 276 276 278 279 278 280 280 278 282 283 279 277 278 281 285 288 288 282 269 275 282 280 282 291 293 293 297 297 296 297 294 288 282 275 270 266 259 251 247 248 252 256 260 265 268 269 269
253 255 256 257 258 258 260 260 260 259 258 257 257 258 259 260 262 265 268 269 270 271 272 272 272 272 273 274 274 275 275 275 276 273 273 278 278 271 265 267 274 282 285 285 280 263 269 279 279 279 287 289 288 290 290 288 288 287 285 280 273 268 263 257 251 247 247 250 252 255 259 262 264 264
257 257 257 256 255 257 259 260 260 260 258 256 256 256 255 255 259 264 267 268 269 271 271 271 272 272 273 274 274 274 275 275 274 271 273 277 274 266 263 265 267 273 282 285 280 258 266 278 279 276 278 284 287 286 281 278 279 279 279 277 273 270 265 257 251 248 248 249 249 251 253 256 259 260
261 262 262 261 259 257 256 257 258 258 257 256 256 255 252 252 259 266 269 270 272 273 272 273 273 274 275 275 275 275 275 276 275 273 274 276 275 270 265 265 260 252 270 281 279 260 266 277 279 276 270 260 272 279 275 274 273 270 271 273 271 269 264 258 253 251 250 250 249 249 250 251 254 257
262 264 265 266 265 263 259 257 256 256 256 256 256 255 255 258 265 272 274 275 275 273 272 274 274 274 275 275 275 275 276 276 277 276 274 274 274 272 269 266 261 256 268 279 276 263 263 268 271 274 268 255 258 267 273 275 274 272 273 273 270 266 261 258 256 253 252 251 250 249 248 248 250 254
263 266 268 270 271 269 265 261 259 258 256 255 256 258 261 266 271 275 277 276 274 271 270 271 271 272 273 273 274 274 275 276 277 276 274 272 271 272 273 272 267 265 273 281 279 269 263 263 266 266 259 254 259 263 267 271 274 276 276 272 269 265 261 257 255 254 253 252 251 251 250 248 249 252
270 272 272 274 275 272 266 263 262 259 256 255 256 259 263 267 270 272 273 274 272 270 269 269 270 271 272 271 271 272 272 274 275 275 275 274 273 273 274 274 272 272 275 280 281 275 266 264 267 265 258 256 260 262 263 266 269 271 272 271 269 264 258 256 255 255 255 254 253 253 250 247 247 249
276 275 273 273 273 270 265 262 260 257 253 252 253 255 259 263 266 268 270 272 273 272 270 268 269 271 271 271 270 271 272 274 275 276 276 277 276 275 275 275 274 273 274 275 276 274 269 265 266 266 263 259 256 257 263 266 267 269 270 269 267 263 260 258 257 258 257 254 253 252 249 248 246 245
279 279 277 275 272 268 264 260 259 258 256 254 252 253 256 258 261 264 267 270 273 273 271 269 269 271 273 273 273 274 275 275 275 275 276 276 276 275 274 274 272 271 272 272 272 272 270 267 267 266 264 261 256 256 260 265 268 269 267 264 266 268 267 264 261 261 259 256 254 253 252 252 250 246
290 290 288 284 281 276 270 263 259 260 261 260 257 255 254 255 256 259 265 270 274 275 274 272 272 274 277 278 277 276 275 273 272 272 272 273 273 272 271 271 271 272 272 271 269 268 267 267 267 266 263 261 259 258 259 262 266 268 267 265 266 268 269 267 265 262 258 257 257 257 257 256 252 248
302 304 303 299 296 293 284 273 265 263 262 261 259 258 258 260 262 266 271 274 274 273 272 272 273 275 276 276 275 274 271 268 269 269 268 268 269 270 269 268 270 273 274 273 271 269 267 266 265 264 262 261 261 262 262 261 261 263 266 265 262 263 266 267 267 266 264 261 259 257 256 255 252 249
299 300 300 297 297 298 297 289 279 272 266 262 261 262 264 267 269 271 273 272 272 272 272 270 270 271 271 270 270 270 268 267 267 267 265 264 266 268 267 264 265 271 275 276 275 273 272 269 266 264 263 262 262 265 265 262 260 261 264 265 263 263 263 263 265 268 268 261 256 256 256 254 253 251
294 294 294 292 290 291 293 291 285 279 273 267 264 263 264 266 268 269 268 267 268 270 270 269 268 268 268 268 267 267 266 267 268 267 265 263 264 265 262 259 261 266 271 276 277 275 273 271 269 267 266 265 264 264 261 259 260 261 262 264 264 263 262 261 262 265 262 256 254 255 255 254 254 253
295 295 295 293 289 285 282 280 279 280 280 276 272 270 269 269 268 268 267 267 269 270 269 267 266 266 267 267 268 268 267 268 271 270 267 265 264 262 258 258 262 264 266 271 275 275 272 270 268 267 266 265 264 261 256 253 255 258 260 262 261 261 262 263 261 259 257 256 255 254 254 255 257 255
297 296 294 291 289 284 277 273 274 277 278 277 277 277 277 275 273 270 269 270 271 270 269 267 266 265 266 266 268 270 270 271 272 272 271 268 263 261 258 258 261 265 265 268 272 273 271 268 264 259 256 256 258 261 259 254 252 253 255 257 258 259 260 262 261 257 254 253 251 248 250 255 259 259
301 297 291 286 284 282 276 273 273 275 276 277 278 278 278 277 275 273 272 273 273 270 268 266 265 265 266 266 269 271 272 272 272 272 271 267 262 260 260 259 260 263 263 263 267 269 268 264 256 246 243 248 251 261 266 262 257 253 252 253 257 259 258 260 259 255 251 249 245 242 244 252 259 263
310 304 296 289 286 284 279 277 277 277 277 278 278 276 275 275 275 275 276 276 273 270 269 268 268 268 268 269 270 273 274 272 271 270 269 267 263 261 260 259 261 262 261 261 264 265 264 260 251 239 234 243 242 249 264 266 262 253 249 250 253 257 257 255 253 251 249 247 244 243 245 249 258 265
326 317 308 300 296 292 287 284 283 282 281 282 281 278 277 277 277 279 279 278 275 273 272 273 273 274 274 273 272 273 274 273 270 268 267 266 262 259 257 259 261 263 264 265 266 264 260 255 246 236 229 231 236 242 258 264 259 251 247 246 250 256 257 250 246 248 249 247 246 249 249 250 257 264
347 339 331 322 315 309 302 297 292 289 288 289 287 285 284 283 283 283 281 279 278 277 275 274 274 274 274 274 273 272 272 270 268 265 264 262 260 257 257 259 262 265 267 267 266 264 258 249 243 237 231 231 239 246 252 259 262 259 253 246 248 255 256 251 248 250 251 250 250 252 251 252 257 260
356 353 349 344 339 334 330 326 321 316 312 310 307 303 300 299 300 299 295 288 283 279 276 275 275 275 275 276 276 274 272 271 269 266 264 262 261 259 259 260 262 263 264 263 264 264 258 251 248 245 240 243 251 255 257 261 266 267 262 256 254 256 257 257 256 255 255 256 254 252 251 251 252 254
350 345 341 338 337 335 333 331 330 327 325 323 321 318 315 314 315 315 313 308 300 291 287 285 283 282 282 281 279 278 276 274 272 271 268 265 263 262 261 261 261 260 259 260 263 265 264 262 261 256 252 254 257 258 258 260 263 264 264 263 261 261 261 261 259 256 257 259 255 250 250 250 251 254
343 337 329 325 325 325 324 323 323 322 320 318 317 317 315 313 311 310 310 311 310 306 305 303 301 298 295 292 288 283 278 275 274 275 274 270 267 264 263 260 258 259 258 259 263 267 271 272 270 262 255 252 249 245 247 252 255 260 265 268 268 267 267 267 263 259 258 258 254 250 250 249 248 253
333 330 324 320 317 317 318 319 319 317 314 312 312 312 311 309 307 307 307 308 306 304 303 303 303 302 301 299 298 295 289 285 282 280 277 272 267 264 261 259 258 259 259 259 264 270 272 272 268 259 246 243 242 240 245 254 259 263 268 271 272 273 274 274 271 265 261 259 255 253 252 247 238 244
326 326 323 321 318 316 317 317 315 311 310 310 309 308 307 306 303 302 302 302 302 301 301 301 300 298 296 296 297 297 296 295 293 289 283 277 271 266 264 263 263 263 262 262 265 270 270 268 265 254 239 236 239 241 245 253 258 262 265 269 273 276 277 277 275 270 267 264 261 257 255 250 245 248
327 325 324 322 321 318 316 314 312 310 309 308 306 305 304 303 301 300 300 301 301 302 302 302 300 298 296 295 294 291 291 292 292 291 288 285 281 275 272 271 269 267 266 264 262 265 268 268 264 253 239 234 235 237 241 247 253 258 263 268 272 274 276 277 275 273 273 273 271 267 262 259 255 254